User: anonymous   Login
Location: Launay
(47.2429°N, 1.5727°E)
Time: 00:40:37
(UTC+00:00)
Language:

ISS - Orbit

View from above orbital plane
View from above orbital plane
View from above satellite
View from above satellite

Ground track
Ground track

The orbit data is extracted from the following two-line orbital elements,

1 25544U 98067A   25198.88731779  .00007881  00000-0  14626-3 0  9991
2 25544  51.6349 154.8881 0002269  90.8972 300.4545 15.49933775519929
Epoch (UTC): 17 July 2025 21:17:44
Eccentricity: 0.0002269
inclination: 51.6349°
perigee height: 415 km
apogee height: 418 km
right ascension of ascending node: 154.8881°
argument of perigee: 90.8972°
revolutions per day: 15.49933775
mean anomaly at epoch: 300.4545°
orbit number at epoch: 51992

The dashed part of the orbit path shows where the satellite is in the earth's shadow,  

DLR